Flag for Sierra Leone Weather past 2 weeks in Freetown, Sierra Leone

Now
84 °F

Thunderstorms. Broken clouds.


Feels Like: 94 °F
Forecast: N/A
Wind: 12 mph from West

Location: Conakry / Gbessia

Current Time: Aug 30, 2014 at 5:09:37 PM

Latest Report: Aug 30, 2014 at 4:00 PM


Visibility: N/A

Pressure: 29.86 "Hg

Humidity: 79%

Dew point: 77 °F

Location of FreetownLocation

Historic Weather in Freetown — Graph

°F

Freetown temperature yesterday

Maximum temperature yesterday: 88 °F (at 2:00 PM)
Minimum temperature yesterday: 75 °F (at 6:00 AM)
Average temperature yesterday: 81 °F

Past Weeks' High & Low Weather Summary

 TemperatureHumidityPressure
High88 °F (Aug 29, 2:00 PM)100% (Aug 16, 3:00 AM)30.01 "Hg (Aug 16, 3:00 AM)
Low73 °F (Aug 16, 3:00 AM)62% (Aug 29, 2:00 PM)29.86 "Hg (Aug 17, 4:00 PM)
Average78 °F90%29.93 "Hg
* Reported Aug 15 4:00 PM — Aug 30 4:00 PM, Freetown, Weather by CustomWeather, © 2014

Note: Actual official high and low records may vary slightly from our data, if they occured in-between our weather recording intervals... More about our weather records

Advertising

Freetown weather history for previous 24 hours

 ConditionsComfort  
Time TempWeatherWind HumidityBarometerVisibility
4:00 PM
Aug 30
84 °FThunderstorms. Broken clouds.12 mph79%29.86 "HgN/A
3:00 PM86 °FScattered clouds.12 mph75%29.89 "HgN/A
2:00 PM86 °FBroken clouds.12 mph84%29.92 "HgN/A
12:00 PM84 °FPartly sunny.9 mph84%29.95 "HgN/A
11:00 AM84 °FPartly sunny.7 mph84%29.98 "HgN/A
10:00 AM84 °FPartly sunny.5 mph84%29.98 "HgN/A
9:00 AM82 °FPartly sunny.7 mph89%29.95 "HgN/A
8:00 AM79 °FPartly sunny.5 mph94%29.95 "HgN/A
7:00 AM77 °FPartly sunny.5 mph100%29.92 "HgN/A
6:00 AM79 °FPassing clouds.5 mph94%29.92 "HgN/A
5:00 AM79 °FPassing clouds.7 mph94%29.92 "HgN/A
4:00 AM79 °FPassing clouds.5 mph94%29.89 "HgN/A
3:00 AM79 °FPassing clouds.5 mph94%29.89 "HgN/A
2:00 AM79 °FPassing clouds.5 mph94%29.92 "HgN/A
1:00 AM79 °FPassing clouds.5 mph94%29.95 "HgN/A
12:00 AM81 °FPassing clouds.5 mph84%29.95 "HgN/A
11:00 PM
Aug 29
81 °FPassing clouds.7 mph84%29.95 "HgN/A
10:00 PM81 °FPassing clouds.5 mph89%29.92 "HgN/A
9:00 PM81 °FPassing clouds.5 mph89%29.92 "HgN/A
7:00 PM81 °FScattered clouds.7 mph84%29.89 "HgN/A
6:00 PM82 °FScattered clouds.12 mph79%29.89 "HgN/A
5:00 PM84 °FPartly sunny.12 mph79%29.89 "HgN/A
Weather by CustomWeather, © 2014

See weather overviewHow to use our weather pages